Probability
0 0 3 3 3 3 3 0 0 0 0 0 0 3 0 3 6 6 3 13 42 45 35 29 29 29 26 29 26 23 19 16 13 32 29 23 29 23 19 19 19 23 23
0 0 3 0 3 3 0 0 0 0 0 0 0 0 0 0 3 6 3 6 19 35 39 32 32 32 29 32 26 26 19 19 23 32 35 35 32 26 23 19 19 19 13
3 3 3 3 3 3 0 0 0 0 0 0 0 0 0 0 6 3 3 3 10 23 29 32 23 29 35 29 29 26 26 26 26 35 39 35 35 32 23 23 19 16 19
3 3 3 3 3 3 0 3 0 0 0 0 0 0 0 3 3 3 3 6 6 13 19 26 35 39 39 35 32 26 29 32 35 35 35 32 29 29 26 26 19 23 26
6 3 3 3 3 3 0 3 3 0 0 0 3 10 6 6 6 6 6 10 10 10 13 13 26 35 42 35 32 29 26 32 32 26 26 29 26 26 26 26 23 23 23
6 6 3 3 3 3 6 6 3 0 0 3 6 6 3 3 10 6 6 10 10 10 10 6 16 13 16 32 29 26 23 29 29 29 32 29 23 23 23 23 19 19 23
6 10 10 6 3 3 10 6 3 3 6 3 6 6 3 0 3 3 3 3 6 3 3 3 6 10 16 23 23 26 19 19 23 29 23 19 23 23 16 19 16 16 19
13 16 13 10 10 6 10 10 3 3 6 10 10 6 3 3 0 0 3 10 10 10 13 10 10 10 6 10 10 23 23 19 23 23 26 23 16 19 16 19 16 16 16
13 16 13 10 6 10 10 13 10 0 16 10 10 6 3 3 3 3 0 3 6 3 3 3 10 6 3 3 6 6 16 23 23 16 16 16 19 16 19 19 19 19 19
13 13 10 6 10 6 10 10 16 13 6 16 6 6 3 6 3 3 6 3 3 3 3 3 3 6 10 6 6 0 6 13 23 19 19 23 19 16 19 19 23 19 19
13 13 10 10 10 10 10 10 10 10 16 16 13 6 3 3 6 6 0 3 3 3 3 3 3 3 6 3 6 6 3 3 10 19 19 26 26 16 16 16 19 19 19
16 13 6 6 13 6 3 3 3 13 13 10 13 10 3 3 10 3 3 3 3 3 3 0 3 3 3 3 3 3 0 0 0 0 13 16 23 19 16 19 23 19 16
16 16 10 6 6 0 3 3 3 6 10 13 13 13 13 10 6 3 3 6 3 0 0 0 3 3 3 3 3 3 3 0 0 3 3 3 13 13 13 19 16 23 23
13 10 10 16 10 10 10 6 6 10 10 10 6 10 10 10 6 6 6 6 3 0 3 3 0 3 0 3 3 3 3 3 0 0 0 3 3 3 6 10 10 13 16
16 10 13 10 13 6 6 6 16 10 6 6 6 6 6 10 10 6 6 3 6 3 3 3 3 3 3 3 3 3 3 3 3 0 0 0 0 0 0 0 3 3 3
13 13 16 10 13 3 6 6 10 6 10 10 10 6 6 6 10 10 6 6 0 3 3 0 6 3 3 3 3 3 6 3 3 3 0 0 0 0 0 0 0 0 0
19 16 13 16 13 13 13 3 6 3 3 3 3 3 3 10 10 13 13 3 0 0 3 3 3 3 3 6 6 6 6 3 3 3 3 0 0 0 0 0 0 0 0
19 19 13 13 13 19 10 13 6 3 3 6 3 3 3 6 10 10 10 10 6 6 6 3 3 3 3 3 3 3 3 3 3 3 0 0 0 0 0 0 0 0 0
16 16 16 10 13 16 13 10 6 10 10 6 6 3 3 6 6 6 3 3 3 3 3 3 3 3 3 3 3 3 3 3 3 3 0 0 0 0 0 0 0 0 0
13 13 13 13 13 10 13 10 6 6 10 6 6 6 6 6 3 6 3 3 3 3 3 3 3 3 3 3 3 6 6 6 6 10 10 0 0 0 0 0 0 0 0
10 10 10 10 13 10 10 10 6 6 10 3 3 6 6 6 6 0 0 0 3 3 3 3 3 3 0 3 3 6 3 3 10 10 10 10 10 6 6 0 0 0 0
10 10 10 10 6 10 10 10 10 10 3 3 3 3 6 6 6 3 3 0 0 0 0 0 0 0 0 0 0 0 0 3 6 10 10 10 10 10 10 10 3 0 0
10 6 10 16 13 10 6 3 0 6 6 6 10 10 6 6 6 3 0 0 0 0 0 0 0 0 0 0 0 0 0 0 3 10 6 6 6 10 10 6 0 0 0
10 10 10 6 10 13 0 0 0 0 0 3 6 3 6 6 0 0 3 3 3 0 0 0 0 0 0 0 0 0 0 0 0 3 6 10 3 6 3 6 0 0 0
16 16 16 13 13 13 0 0 0 0 0 0 6 6 3 6 3 0 0 3 3 3 3 0 0 0 0 0 0 0 0 0 0 3 3 10 6 3 6 3 3 0 0
23 19 19 19 19 19 13 3 0 0 6 6 6 3 3 3 3 0 3 3 3 3 3 3 3 0 0 0 0 0 0 0 3 0 6 3 3 3 3 3 3 3 3
Height
5880 5880 5880 5880 5880 5880 5880 5880 5880 5880 5880 5879 5879 5878 5878 5878 5878 5877 5877 5876 5876 5876 5876 5875 5876 5876 5877 5877 5878 5879 5879 5880 5880 5881 5882 5883 5883 5884 5884 5885 5885 5885 5885
5879 5879 5879 5880 5880 5880 5880 5880 5880 5880 5879 5879 5879 5878 5878 5878 5877 5877 5877 5876 5876 5875 5875 5875 5876 5876 5877 5877 5877 5878 5879 5879 5880 5880 5881 5881 5882 5882 5883 5883 5883 5883 5884
5879 5879 5879 5879 5879 5879 5879 5880 5879 5879 5879 5879 5878 5878 5877 5877 5877 5876 5876 5875 5875 5875 5875 5875 5875 5876 5876 5876 5877 5877 5878 5878 5879 5879 5880 5880 5880 5881 5881 5881 5881 5882 5882
5879 5879 5879 5879 5879 5879 5879 5879 5879 5879 5879 5878 5878 5877 5877 5876 5876 5876 5875 5875 5875 5874 5874 5874 5874 5875 5875 5875 5875 5876 5876 5877 5877 5878 5878 5878 5878 5878 5879 5879 5879 5880 5880
5879 5879 5879 5879 5879 5879 5879 5879 5879 5878 5878 5877 5877 5876 5876 5875 5875 5875 5874 5874 5874 5873 5873 5873 5873 5874 5874 5874 5874 5874 5874 5875 5876 5876 5876 5877 5877 5877 5877 5878 5878 5878 5878
5879 5879 5878 5878 5878 5878 5878 5878 5878 5877 5877 5876 5876 5875 5875 5874 5874 5874 5873 5873 5873 5872 5872 5872 5872 5872 5872 5873 5873 5873 5873 5873 5874 5874 5874 5875 5875 5875 5876 5876 5876 5876 5876
5879 5878 5877 5877 5877 5877 5877 5877 5876 5876 5876 5875 5875 5874 5874 5873 5873 5872 5872 5872 5872 5871 5871 5871 5870 5871 5871 5871 5872 5872 5872 5872 5872 5872 5873 5873 5874 5874 5874 5874 5874 5874 5874
5878 5877 5877 5876 5876 5875 5875 5875 5875 5875 5874 5874 5874 5873 5872 5873 5872 5871 5871 5870 5870 5870 5869 5869 5869 5869 5869 5870 5870 5870 5870 5870 5870 5871 5871 5871 5871 5872 5872 5872 5871 5871 5871
5878 5877 5876 5875 5875 5874 5874 5874 5874 5873 5873 5872 5872 5872 5871 5871 5871 5871 5870 5869 5869 5868 5868 5867 5868 5868 5868 5868 5868 5868 5868 5868 5869 5869 5869 5869 5869 5869 5869 5869 5869 5869 5868
5877 5876 5875 5874 5873 5873 5873 5872 5872 5871 5871 5871 5870 5870 5870 5870 5870 5869 5869 5868 5868 5867 5867 5866 5866 5866 5866 5866 5866 5865 5866 5866 5866 5866 5866 5866 5866 5866 5866 5866 5866 5866 5866
5876 5875 5874 5873 5872 5872 5871 5871 5870 5870 5870 5869 5869 5869 5868 5868 5868 5867 5868 5867 5867 5866 5866 5865 5865 5864 5864 5864 5863 5863 5863 5863 5864 5863 5863 5864 5864 5863 5863 5863 5863 5863 5862
5875 5874 5872 5871 5871 5870 5870 5869 5869 5868 5868 5868 5867 5867 5866 5866 5866 5866 5866 5865 5865 5865 5864 5863 5863 5862 5862 5861 5861 5860 5860 5861 5861 5861 5861 5861 5861 5860 5860 5860 5859 5859 5859
5874 5873 5871 5870 5870 5869 5868 5868 5867 5867 5866 5866 5865 5865 5864 5864 5863 5863 5863 5863 5863 5863 5862 5862 5861 5860 5860 5859 5858 5858 5857 5857 5857 5857 5857 5857 5857 5857 5856 5856 5855 5855 5854
5873 5871 5870 5869 5868 5867 5866 5866 5865 5865 5864 5863 5863 5862 5861 5861 5861 5861 5861 5861 5861 5861 5860 5860 5859 5858 5857 5856 5855 5855 5854 5854 5854 5854 5854 5854 5853 5853 5852 5852 5851 5851 5850
5871 5870 5868 5867 5866 5865 5864 5863 5863 5862 5862 5861 5860 5860 5859 5859 5858 5858 5858 5858 5858 5858 5858 5857 5856 5855 5854 5854 5853 5852 5851 5851 5851 5850 5850 5850 5849 5849 5848 5848 5847 5847 5846
5870 5868 5866 5865 5864 5863 5862 5861 5860 5859 5859 5858 5858 5857 5856 5856 5856 5855 5855 5855 5855 5855 5854 5854 5853 5853 5851 5851 5850 5849 5848 5848 5847 5847 5846 5846 5845 5845 5844 5844 5843 5842 5842
5867 5865 5864 5863 5861 5860 5859 5858 5857 5857 5856 5855 5855 5854 5853 5853 5852 5852 5852 5852 5851 5851 5851 5851 5850 5849 5848 5847 5846 5846 5845 5844 5843 5843 5842 5842 5841 5840 5840 5839 5838 5838 5837
5864 5863 5861 5859 5858 5857 5856 5855 5854 5854 5853 5852 5851 5850 5850 5849 5849 5848 5848 5848 5847 5847 5847 5846 5846 5845 5844 5843 5842 5841 5841 5840 5839 5839 5838 5837 5837 5836 5835 5834 5833 5832 5831
5861 5859 5857 5856 5855 5853 5852 5851 5851 5850 5849 5848 5848 5847 5846 5845 5845 5844 5844 5844 5843 5843 5842 5842 5841 5840 5839 5838 5837 5836 5835 5834 5834 5833 5833 5832 5832 5831 5830 5829 5828 5827 5826
5856 5854 5853 5851 5850 5849 5848 5847 5846 5845 5845 5844 5843 5843 5842 5841 5840 5840 5839 5839 5839 5838 5838 5837 5836 5835 5834 5833 5832 5831 5830 5828 5828 5827 5827 5826 5826 5825 5824 5824 5823 5821 5820
5851 5850 5848 5846 5845 5844 5843 5842 5841 5841 5840 5839 5838 5838 5837 5836 5836 5835 5834 5834 5833 5833 5832 5832 5831 5830 5829 5828 5826 5825 5824 5823 5822 5821 5821 5820 5820 5819 5818 5817 5816 5815 5814
5846 5844 5842 5841 5839 5838 5838 5837 5836 5835 5834 5833 5833 5832 5831 5831 5830 5830 5829 5828 5827 5827 5827 5826 5825 5824 5823 5821 5820 5819 5818 5817 5816 5815 5814 5813 5812 5812 5811 5810 5809 5808 5807
5840 5838 5836 5835 5834 5833 5832 5831 5830 5829 5828 5828 5827 5826 5826 5825 5824 5824 5823 5822 5821 5821 5820 5819 5818 5817 5816 5814 5813 5812 5811 5810 5809 5808 5807 5806 5805 5804 5804 5803 5802 5801 5800
5833 5832 5830 5829 5827 5826 5825 5824 5824 5823 5822 5822 5821 5820 5819 5819 5818 5817 5816 5816 5815 5814 5813 5812 5811 5810 5808 5807 5805 5804 5803 5803 5802 5801 5800 5799 5798 5797 5796 5795 5794 5793 5792
5826 5824 5823 5821 5820 5819 5818 5817 5816 5815 5815 5814 5814 5813 5812 5812 5811 5810 5809 5809 5808 5807 5806 5805 5803 5802 5801 5799 5798 5797 5796 5795 5794 5794 5792 5792 5790 5789 5788 5787 5786 5785 5784
5818 5816 5815 5813 5812 5811 5810 5809 5808 5808 5807 5807 5806 5805 5804 5804 5803 5802 5801 5801 5800 5799 5798 5797 5796 5794 5793 5791 5790 5789 5788 5787 5786 5786 5785 5784 5782 5781 5780 5779 5778 5777 5776
Wind_Speed
2 2 2 1 1 1 1 0 1 2 2 1 2 2 2 2 2 2 2 2 2 2 3 3 4 3 4 4 4 4 3 4 4 4 5 5 6 6 7 7 7 8 8
1 2 2 1 1 1 0 1 1 2 2 2 3 3 2 3 3 2 3 3 3 3 3 3 4 3 4 4 4 5 4 4 5 5 5 5 5 6 7 7 7 7 8
1 0 0 0 1 1 1 1 1 2 2 2 2 2 3 4 3 3 3 3 3 3 3 4 4 5 5 5 5 5 5 6 6 6 5 6 6 7 7 7 7 8 8
1 1 1 1 1 1 1 1 2 3 3 3 4 4 4 3 3 3 3 3 2 3 3 4 4 4 5 5 5 5 6 6 6 7 7 7 7 7 6 7 7 8 9
2 1 1 1 1 2 2 2 2 3 4 4 4 4 4 4 4 3 4 3 3 3 3 4 4 5 5 6 7 6 6 6 6 7 7 7 7 7 7 7 8 9 10
3 3 2 2 2 3 3 3 3 4 4 4 5 5 5 4 4 4 4 4 4 4 5 5 5 5 6 6 6 7 7 7 7 7 7 7 7 7 7 8 9 9 10
5 5 3 2 3 4 4 4 4 5 5 6 6 5 5 4 5 5 5 5 5 5 6 6 5 6 6 6 7 7 7 7 7 7 7 7 8 8 9 9 10 10 10
5 5 4 3 4 4 4 5 5 6 6 6 6 6 5 4 5 5 6 6 6 7 7 6 7 7 7 7 6 7 8 9 8 9 9 9 9 9 9 10 10 11 11
6 6 6 5 5 5 5 5 6 7 6 6 6 6 5 5 5 6 6 6 6 6 6 6 7 6 7 7 8 8 9 10 10 10 10 10 10 10 10 10 10 10 11
7 6 6 5 6 6 6 6 6 6 7 6 6 6 6 6 7 7 6 6 6 6 6 7 7 8 8 8 8 9 10 10 10 10 10 10 10 10 10 11 11 12 12
7 7 7 6 5 6 6 6 6 7 7 7 7 7 8 8 8 7 6 6 6 7 7 8 8 8 9 9 9 9 10 10 10 10 10 11 11 11 11 12 12 13 13
8 7 6 6 6 6 7 7 7 6 7 8 8 9 9 8 9 8 8 7 7 7 7 8 8 8 8 9 10 10 10 11 11 12 12 11 12 13 13 14 14 14 14
9 8 7 6 6 7 8 8 8 8 8 9 9 10 10 9 9 9 9 8 8 8 9 9 9 10 10 10 10 11 12 12 12 12 12 13 13 14 14 14 14 15 15
10 8 8 8 8 8 8 9 9 9 10 11 11 11 11 11 10 10 10 10 10 10 10 10 11 11 11 11 11 12 12 12 13 13 13 13 14 15 15 15 15 16 16
11 10 10 10 10 10 10 10 11 11 11 11 11 12 12 12 11 11 11 11 11 12 12 11 11 12 13 12 12 12 12 13 13 14 14 15 14 15 15 15 15 16 16
12 12 11 11 11 11 11 11 12 12 12 11 12 13 13 12 11 12 13 13 13 13 13 12 13 13 14 14 14 13 13 13 13 14 15 15 15 15 15 16 16 17 17
14 13 13 13 13 12 12 12 12 12 12 12 13 13 13 13 13 13 14 14 14 14 14 14 15 15 15 15 15 15 15 15 15 15 15 15 15 16 16 17 17 18 18
15 15 15 14 14 14 14 13 13 13 13 14 14 13 13 13 14 14 15 15 15 15 16 16 16 16 16 16 16 17 17 17 16 16 17 16 16 17 17 18 19 19 19
17 17 16 15 15 14 15 15 15 15 15 15 15 15 15 14 15 15 15 16 16 17 17 17 17 17 18 18 18 18 18 18 18 18 19 18 18 18 19 19 20 20 20
19 19 18 17 17 16 16 17 17 17 16 16 16 16 15 15 16 16 17 17 18 18 19 19 19 19 19 19 20 20 20 20 20 20 20 20 20 20 20 20 21 21 21
21 21 21 20 19 19 19 19 18 18 18 18 18 18 18 18 17 18 18 19 19 19 20 20 21 21 21 21 22 23 22 22 21 22 22 22 22 22 22 22 22 22 23
21 22 22 22 21 20 20 20 20 19 19 19 20 20 20 20 19 20 20 20 21 21 21 22 22 22 22 23 23 23 24 23 23 23 23 23 23 24 24 23 23 23 24
23 23 24 24 23 23 22 21 21 21 21 21 20 21 21 21 21 21 21 21 22 23 23 23 23 24 24 24 25 25 25 25 25 25 24 24 24 25 25 25 25 24 25
25 25 24 24 24 23 23 23 23 23 23 22 22 22 22 22 22 22 22 22 24 24 24 25 25 25 25 25 25 25 25 25 26 26 25 25 25 25 26 26 26 25 25
27 26 26 25 25 25 25 25 25 25 25 24 24 24 24 24 24 24 24 24 25 25 26 26 26 27 27 28 28 27 27 26 26 27 27 26 26 26 27 27 27 27 26
28 28 28 27 26 26 26 27 27 28 27 27 26 26 26 26 26 26 26 26 27 27 28 28 29 29 29 30 30 28 28 27 27 27 28 28 28 28 28 28 27 27 27
Wind_Direction
71 98 105 65 51 103 100 47 313 340 335 317 297 292 273 271 302 319 317 290 282 263 251 232 220 233 231 230 216 217 225 221 213 218 223 232 241 248 252 253 256 255 257
50 105 113 89 121 115 16 308 315 332 333 324 307 296 279 279 281 300 313 297 282 275 264 247 226 234 233 250 239 235 237 240 236 233 232 234 246 250 250 255 261 261 257
347 337 120 123 150 200 274 296 311 310 332 331 324 307 290 281 276 283 291 293 280 268 264 256 236 239 240 251 248 244 241 246 245 242 247 249 252 251 252 255 262 263 263
1 28 357 265 244 263 269 307 304 298 307 310 305 293 282 270 273 277 280 286 278 277 266 249 245 240 241 246 247 247 249 250 249 247 249 252 256 252 254 258 262 262 264
3 331 328 284 261 265 261 284 287 290 298 301 298 296 277 266 272 277 279 282 282 279 261 242 243 248 244 244 244 246 250 254 252 250 251 251 258 259 264 264 261 261 263
359 328 306 290 278 267 270 288 291 289 298 300 300 294 282 271 270 278 278 283 284 278 263 250 245 245 251 256 261 255 256 251 249 245 250 254 263 268 271 275 269 265 267
357 339 332 303 284 275 278 278 280 284 288 289 287 286 277 272 273 277 276 273 276 274 268 259 249 247 250 255 258 258 260 253 255 255 256 260 265 266 271 273 274 272 271
350 349 335 316 302 292 284 281 277 280 278 281 288 285 270 272 279 283 275 276 281 272 268 261 261 251 248 256 262 260 264 267 266 265 265 266 266 269 273 275 276 278 276
339 333 318 303 298 297 294 285 280 278 275 283 283 283 276 268 281 290 287 282 279 276 271 270 261 257 254 256 258 259 266 268 270 267 268 270 270 273 275 276 277 278 280
332 327 318 311 303 296 292 284 282 278 277 276 279 274 276 278 280 290 285 286 280 278 277 275 275 269 267 260 263 265 265 267 271 268 269 271 273 275 276 277 279 280 281
331 323 317 317 308 297 293 285 282 275 277 279 277 276 277 280 280 280 282 281 280 283 283 281 279 276 277 275 274 270 266 267 269 271 272 273 275 277 276 278 280 282 282
327 326 317 309 305 298 291 287 288 281 282 280 278 280 278 278 278 278 278 278 280 280 279 279 282 282 283 282 282 281 277 271 269 270 272 274 275 278 280 281 283 283 284
326 323 315 310 303 299 295 287 285 278 281 281 279 278 277 280 281 275 274 274 280 282 281 279 282 283 284 285 283 283 282 281 275 273 272 272 274 279 283 282 283 284 284
321 319 317 311 305 301 298 292 288 284 283 282 279 275 272 275 277 273 272 272 277 282 282 279 280 283 286 289 287 284 280 280 280 276 273 276 277 278 280 279 281 284 285
319 316 315 312 308 302 299 293 290 291 286 282 278 274 272 274 272 271 271 274 277 279 281 280 282 285 287 288 288 286 281 278 278 279 279 279 280 280 278 278 281 284 287
317 315 308 304 303 302 302 296 292 290 290 288 283 274 272 272 272 270 270 274 277 279 280 282 283 286 287 287 285 285 285 281 278 280 285 286 284 283 281 279 281 284 287
314 311 307 303 299 298 298 298 294 290 288 289 290 285 278 272 272 271 271 271 273 278 280 280 283 285 285 284 284 283 285 283 282 283 284 285 285 284 282 281 281 283 285
310 307 304 304 301 295 293 292 289 287 287 287 283 284 283 277 276 275 271 270 272 275 278 279 282 284 284 283 284 283 282 282 282 281 282 283 284 285 287 286 284 285 285
302 300 297 297 298 294 289 288 286 286 285 285 282 283 282 279 276 275 273 272 272 275 278 280 282 284 284 284 283 283 282 281 281 280 280 281 283 285 286 287 287 285 286
300 299 296 292 290 290 288 286 286 284 284 284 284 283 282 279 278 276 276 274 273 276 279 281 283 284 283 283 283 282 281 280 281 280 279 280 281 282 283 285 287 287 287
300 297 295 293 290 287 286 285 285 284 283 284 284 282 282 281 281 279 278 276 275 277 280 282 283 284 284 283 282 282 280 278 279 280 281 282 281 281 282 284 285 286 288
297 295 293 293 290 288 286 282 280 279 281 282 282 280 279 279 279 280 280 279 277 278 280 282 284 285 284 283 281 280 278 277 277 278 279 281 281 281 281 282 283 284 286
295 294 293 290 287 284 283 282 281 279 279 280 282 281 280 278 277 278 278 279 279 279 280 282 284 285 284 283 282 279 277 277 278 279 279 280 282 282 281 282 283 284 285
292 291 291 289 287 283 280 280 280 278 279 280 281 282 281 278 277 276 278 279 280 281 281 283 284 286 285 283 282 281 278 278 279 279 280 281 282 282 281 282 282 284 286
288 289 288 287 285 283 280 279 279 279 278 279 279 280 280 277 276 276 277 279 281 281 282 283 285 286 286 287 285 281 279 279 279 280 280 281 281 282 282 282 282 284 285
286 286 285 283 282 282 281 280 278 277 277 278 277 278 278 276 275 275 276 278 279 280 282 282 284 286 286 286 285 282 280 279 277 278 278 279 280 281 282 282 282 283 284